Preview of NWS' New Version of Forecast
This preview is not operational and should not be used for support decisions.

Regional Weather Roundup (RWR)

Issued by National Weather Service (NWS)

                            
000
ASUS44 KMEG 200900
RWRTN 
TENNESSEE HOURLY STATE WEATHER ROUNDUP
NATIONAL WEATHER SERVICE MEMPHIS TN
400 AM CDT THU JUN 20 2019

TNZ002-004-019-021-049-052-054-088>092-201000-
WEST TENNESSEE
  
CITY           SKY/WX    TMP DP  RH WIND       PRES   REMARKS
MEMPHIS INTL   CLOUDY    70  69  97 S9        29.73F                  
NWS MEMPHIS      N/A     69 N/A N/A MISG        N/A                   
JACKSON        FAIR      69  68  96 S8        29.71F                  
DYERSBURG      MOCLDY    73  66  78 W10       29.71R                  
$$

TNZ008-025-027-028-033-062-065-066-201000-
NORTH MIDDLE TENNESSEE
  
CITY           SKY/WX    TMP DP  RH WIND       PRES   REMARKS
NASHVILLE      CLOUDY    75  69  81 SW9       29.67F                  
CLARKSVILLE    MOCLDY    72  71  97 SW8       29.65F                  
SMYRNA         TSTM      73  72  96 SW3       29.70R                  
CROSSVILLE     CLOUDY    68  66  93 VRB3      29.77S FOG              
$$

TNZ061-075-076-078-094-096-097-201000-
SOUTH MIDDLE TENNESSEE
  
CITY           SKY/WX    TMP DP  RH WIND       PRES   REMARKS
$$

TNZ017-018-042-046-047-201000-
NORTHEAST TENNESSEE
  
CITY           SKY/WX    TMP DP  RH WIND       PRES   REMARKS
TRI CITIES     CLOUDY    66  63  90 CALM      29.79R                  
$$

TNZ012-013-036-069-073-074-201000-
CENTRAL EAST TENNESSEE
  
CITY           SKY/WX    TMP DP  RH WIND       PRES   REMARKS
KNOXVILLE      MOCLDY    67  65  93 CALM      29.74S                  
OAK RIDGE      CLOUDY    67  64  90 CALM      29.76F                  
$$

TNZ083-085-099-201000-
SOUTHEAST TENNESSEE
  
CITY           SKY/WX    TMP DP  RH WIND       PRES   REMARKS
CHATTANOOGA    FAIR      79  72  79 SW10      29.75S                  
$$

SKY/WX REPORTED AS FAIR MEANS FEW OR NO CLOUDS BELOW
12 THOUSAND FEET.